XE2WR-3 Weather Reports


Display with metric or nautical units.
time (UTC)temp
F
wind
direction
speed
MPH
gust
MPH
rain 1hr
in
rain 24hr
in
rain mn
in
humidity
%
barometer
mb
20260503230035 72 56 7.0 13.0 0.00 0.00 0.00 60 1016.1
20260503224534 72 68 8.0 17.0 0.00 0.00 0.00 59 1016.2
20260503223032 72 65 10.0 13.0 0.00 0.00 0.00 59 1016.3
20260503221528 72 86 9.0 14.0 0.00 0.00 0.00 58 1016.6
20260503220033 73 74 5.0 15.0 0.00 0.00 0.00 58 1016.6
20260503214525 73 67 7.0 12.0 0.00 0.00 0.00 58 1016.9
20260503213028 72 61 8.0 15.0 0.00 0.00 0.00 57 1017.0
20260503211534 73 86 7.0 14.0 0.00 0.00 0.00 56 1017.3
20260503210018 72 90 9.0 14.0 0.00 0.00 0.00 57 1017.6
20260503204516 72 63 4.0 16.0 0.00 0.00 0.00 58 1017.7
20260503203014 72 56 5.0 10.0 0.00 0.00 0.00 57 1017.9
20260503201510 71 70 3.0 10.0 0.00 0.00 0.00 57 1018.3
20260503200009 72 68 2.0 10.0 0.00 0.00 0.00 57 1018.7
20260503194505 71 55 9.0 13.0 0.00 0.00 0.00 57 1019.1
20260503193011 71 101 8.0 14.0 0.00 0.00 0.00 57 1019.5
20260503191502 71 58 5.0 11.0 0.00 0.00 0.00 56 1019.6
20260503190001 70 56 3.0 12.0 0.00 0.00 0.00 56 1020.0
20260503184608 69 109 8.0 13.0 0.00 0.00 0.00 57 1020.3
20260503183057 69 110 7.0 12.0 0.00 0.00 0.00 58 1020.7
20260503181559 68 89 4.0 8.0 0.00 0.00 0.00 59 1020.9
20260503180054 68 51 2.0 6.0 0.00 0.00 0.00 60 1021.3
20260503174607 68 93 3.0 6.0 0.00 0.00 0.00 58 1021.4
20260503173055 68 37 2.0 5.0 0.00 0.00 0.00 59 1021.6
20260503171549 66 127 3.0 7.0 0.00 0.00 0.00 61 1021.8
20260503081552 63 57 7.0 12.0 0.00 0.00 0.00 76 1019.9
20260503071543 64 115 3.0 7.0 0.00 0.02 0.00 73 1020.7
20260503054534 64 112 2.0 9.0 0.00 0.04 0.04 73 1020.8
20260503053029 64 111 8.0 13.0 0.00 0.04 0.04 73 1020.8
20260503051526 64 84 10.0 17.0 0.00 0.04 0.04 73 1020.8
20260503050026 64 101 5.0 11.0 0.00 0.04 0.04 74 1020.7
20260503044527 65 75 6.0 11.0 0.00 0.06 0.04 73 1020.7
20260503043025 65 150 7.0 10.0 0.00 0.06 0.04 73 1020.9
20260503041524 65 90 7.0 10.0 0.00 0.06 0.04 73 1020.8
20260503040023 65 68 4.0 7.0 0.00 0.06 0.04 74 1020.9
20260503034521 65 65 5.0 8.0 0.00 0.08 0.04 71 1020.7
20260503033026 65 57 3.0 8.0 0.00 0.08 0.04 68 1020.6
20260503031518 65 37 3.0 7.0 0.00 0.08 0.04 68 1020.4
20260503030017 65 32 4.0 8.0 0.00 0.08 0.04 67 1020.2
20260503024517 66 74 3.0 10.0 0.00 0.08 0.04 67 1020.0
20260503023019 66 58 3.0 8.0 0.00 0.08 0.04 67 1019.8
20260503021516 66 72 3.0 6.0 0.00 0.08 0.04 67 1019.8
20260503020015 66 54 1.0 5.0 0.00 0.08 0.04 67 1019.5
20260503014514 66 70 2.0 5.0 0.00 0.08 0.04 67 1019.2
20260503013014 66 63 4.0 7.0 0.00 0.08 0.04 67 1019.1
20260503011513 66 74 4.0 8.0 0.00 0.08 0.04 66 1019.0
20260503010012 66 75 2.0 7.0 0.00 0.08 0.04 66 1019.0
20260503004511 67 74 4.0 6.0 0.00 0.08 0.04 66 1018.7
20260503003033 67 37 4.0 8.0 0.00 0.08 0.04 66 1018.7
20260503001510 67 47 4.0 9.0 0.00 0.08 0.04 66 1018.6
20260503000010 67 45 3.0 7.0 0.00 0.08 0.04 66 1018.7
20260502234508 67 63 5.0 8.0 0.00 0.08 0.04 66 1018.7
20260502233007 67 76 6.0 11.0 0.00 0.08 0.04 66 1018.6
20260502231507 67 52 5.0 9.0 0.00 0.08 0.04 66 1018.6